EHI
4 2 1 1 2 3 2 2 1 0 0 0 1 2 4 5 3 1 1 0 0 0 0 0 0 0 0 0 0 0 0 0 0 0 0 0 0 0
6 4 2 2 2 2 1 2 2 1 0 1 3 4 5 4 3 3 1 0 0 0 0 0 0 0 0 0 0 0 0 0 0 0 0 0 0 0
8 6 3 2 2 2 1 1 3 3 1 2 6 8 6 4 4 3 1 0 0 0 0 0 0 0 0 0 0 0 0 0 0 0 0 0 0 0
8 7 4 3 4 3 1 1 1 2 1 1 5 9 7 5 4 2 0 0 0 0 0 0 0 0 0 0 0 0 0 0 0 0 0 0 0 0
8 8 6 6 5 3 1 0 0 0 0 0 3 6 5 5 5 2 0 0 0 0 0 0 0 0 0 0 0 0 0 0 0 0 0 0 0 0
8 8 8 7 6 4 1 0 0 0 0 0 1 3 3 4 4 2 1 0 0 0 0 0 0 0 0 0 0 0 0 0 0 0 0 0 0 0
7 7 6 5 4 3 1 0 0 0 0 0 0 1 1 2 2 1 0 0 0 0 0 0 0 0 0 0 0 0 0 0 0 0 0 0 0 0
5 4 3 2 1 1 0 0 0 0 1 0 0 0 0 0 0 0 0 0 0 0 0 0 0 0 0 0 0 0 0 0 0 0 0 0 0 0
2 2 1 0 0 0 0 0 0 0 0 0 0 0 0 0 0 0 0 0 0 0 0 0 0 0 0 0 0 0 0 0 0 0 0 0 0 0
1 2 2 1 0 0 0 0 0 0 0 0 0 0 0 0 0 0 0 0 0 0 0 0 0 0 0 0 0 0 0 0 0 0 0 0 0 0
1 2 2 1 0 0 0 0 0 0 0 0 0 0 0 0 0 0 0 0 0 0 0 0 0 0 0 0 0 0 0 0 0 0 0 0 0 0
1 1 1 1 0 0 0 0 0 0 0 0 0 0 0 0 0 0 0 0 0 0 0 0 0 0 0 0 0 0 0 0 0 0 0 0 0 0
0 0 0 0 0 0 0 0 0 0 0 0 0 0 0 0 0 0 0 0 0 0 0 0 0 0 0 0 0 0 0 0 0 0 0 0 0 0
0 0 0 0 0 0 0 0 0 0 0 0 0 0 0 0 0 0 0 0 0 0 0 0 0 0 0 0 0 0 0 0 0 0 0 0 0 0
0 0 0 0 0 0 0 0 0 0 0 0 0 0 0 0 0 0 0 0 0 0 0 0 0 0 0 0 0 0 0 0 0 0 0 0 0 0
0 0 0 0 0 0 0 0 0 0 0 0 0 0 0 0 0 0 0 0 0 0 0 0 0 0 0 0 0 0 0 0 0 0 0 0 0 0
0 0 0 0 0 0 0 0 0 0 0 0 0 0 0 0 0 0 0 0 0 0 0 0 0 0 0 0 0 0 0 0 0 0 0 0 0 0
0 0 0 0 0 0 0 0 0 0 0 0 0 0 0 0 0 0 0 0 0 0 0 0 0 0 0 0 0 0 0 0 0 0 0 0 0 0
0 0 0 0 0 0 0 0 0 0 0 0 0 0 0 0 0 0 0 0 0 0 0 0 0 0 0 0 0 0 0 0 0 0 0 0 0 0
0 0 0 0 0 0 0 0 0 0 0 0 0 0 0 0 0 0 0 0 0 0 0 0 0 0 0 0 0 0 0 0 0 0 0 0 0 0
0 0 0 0 0 0 0 0 0 0 0 0 0 0 0 0 0 0 0 0 0 0 0 0 0 0 0 0 0 0 0 0 0 0 0 0 0 0
0 0 0 0 0 0 0 0 0 0 0 0 0 0 0 0 0 0 0 0 0 0 0 0 0 0 0 0 0 0 0 0 0 0 0 0 0 0
0 0 0 0 0 0 0 0 0 0 0 0 0 0 0 0 0 0 0 0 0 0 0 0 0 0 0 0 0 0 0 0 0 0 0 0 0 0
Wind_Speed
3 3 2 1 1 1 0 0 1 1 1 2 1 2 3 4 5 3 5 6 6 5 4 3 2 1 1 2 2 3 3 4 4 5 6 6 7 8
2 3 2 1 1 1 0 1 1 0 0 0 1 2 3 5 4 2 4 8 6 6 5 4 3 2 1 1 2 3 3 4 5 6 6 7 7 8
3 3 3 1 0 1 1 1 1 1 0 1 2 2 3 4 2 1 2 4 3 6 6 5 4 3 2 2 2 3 3 4 5 6 7 7 8 9
4 3 3 2 1 1 1 1 1 1 1 1 1 2 2 2 2 1 1 2 2 6 7 6 5 4 3 3 3 4 4 5 5 6 7 8 9 9
3 3 2 2 2 1 0 1 1 2 1 1 0 1 2 2 2 2 2 2 2 3 5 5 4 4 4 4 4 4 4 4 4 5 6 7 8 9
4 3 3 3 2 1 1 1 1 2 2 1 1 2 2 3 3 2 2 2 3 3 3 2 2 3 4 4 5 5 4 3 2 3 4 5 6 8
5 5 6 8 9 5 4 3 2 2 2 2 2 3 4 4 3 3 3 2 3 4 3 2 0 1 2 4 5 4 3 2 0 1 3 5 6 7
6 6 7 8 11 13 14 13 9 4 3 3 3 4 4 4 3 3 3 3 2 3 3 3 2 1 0 1 4 5 4 3 3 4 5 6 7 9
5 5 5 6 7 8 11 14 14 14 10 6 6 4 4 3 3 3 3 3 2 3 2 3 2 3 3 1 4 5 5 5 6 7 7 8 9 11
6 6 6 6 6 6 8 9 9 9 8 7 6 5 4 3 3 3 3 3 2 3 3 3 3 3 5 2 5 5 5 6 8 9 10 10 11 12
7 7 7 7 10 9 9 9 8 6 8 9 7 6 5 5 4 4 4 4 3 3 4 3 4 4 4 3 2 4 7 9 10 11 11 11 12 11
8 9 12 10 11 10 8 7 7 5 4 3 3 2 1 2 4 3 3 4 4 3 4 4 4 5 4 3 4 4 5 8 10 10 11 11 10 6
7 7 7 12 13 12 9 7 6 3 2 1 2 2 2 3 3 2 2 2 3 2 3 3 3 3 4 5 5 4 4 4 4 5 7 8 9 7
8 7 7 11 12 11 8 7 7 5 2 2 3 3 3 3 2 2 2 1 2 3 4 2 2 3 4 6 6 5 5 5 4 4 4 6 7 10
9 11 10 10 9 7 7 6 4 3 3 3 3 3 2 2 2 2 2 2 3 4 2 1 2 3 3 5 6 5 6 5 4 4 4 5 5 5
8 9 9 7 4 4 3 2 2 3 3 3 3 2 2 2 2 2 3 3 3 2 2 3 3 3 4 5 5 6 5 5 5 5 5 5 5 5
6 4 4 3 2 2 2 3 3 3 3 3 2 3 3 3 3 2 2 3 3 4 4 3 4 4 5 5 5 5 5 5 5 5 6 6 6 5
5 4 4 3 3 3 3 3 3 3 2 2 2 3 3 3 3 3 3 3 4 4 4 4 4 5 5 5 4 5 5 5 5 6 6 6 6 5
3 4 4 3 3 3 2 3 3 3 2 2 2 3 3 4 3 3 3 4 4 4 5 4 4 5 7 8 7 7 6 6 6 5 5 6 6 6
2 4 3 3 3 3 3 3 3 3 2 2 3 3 4 4 4 4 4 4 4 5 5 4 4 4 5 7 7 8 8 6 5 6 6 6 5 7
3 3 3 4 4 4 3 2 2 3 3 3 3 3 4 4 4 4 4 5 5 4 5 5 5 7 5 5 6 6 5 7 8 6 6 6 6 6
4 4 4 4 4 3 3 2 2 3 3 4 4 4 4 4 5 5 5 5 5 5 5 5 6 5 5 6 7 8 7 7 8 9 9 7 5 6
4 4 4 4 3 3 3 3 4 4 4 4 4 4 4 4 4 4 5 5 5 6 6 6 6 6 6 6 6 7 9 9 6 5 5 7 9 12
Wind_Direction
199 201 219 250 247 265 290 28 157 233 229 195 146 124 119 101 130 147 130 149 154 156 155 147 133 89 16 355 345 340 336 336 336 335 331 328 325 321
193 190 195 253 253 245 254 336 355 253 234 171 107 91 84 112 115 111 123 142 154 158 152 143 130 115 82 36 11 5 4 359 352 347 344 340 336 330
202 187 180 221 337 337 4 350 347 34 111 48 69 81 77 73 91 76 145 140 147 160 157 150 141 132 116 88 59 50 38 23 13 6 360 354 347 339
193 185 181 185 155 1 354 8 20 48 76 74 73 79 80 96 85 333 35 102 143 159 163 157 151 142 127 113 91 77 61 42 29 17 8 360 352 345
165 168 166 151 159 144 80 23 28 42 67 97 73 79 72 51 51 17 28 27 11 125 152 155 159 155 151 138 117 104 85 62 38 18 5 356 349 344
109 105 101 111 118 133 108 57 43 31 41 55 32 52 63 37 50 15 13 15 3 21 40 61 144 148 144 144 132 125 114 94 55 14 354 343 338 334
101 95 90 89 78 74 80 64 61 55 51 45 51 53 43 31 22 354 10 11 11 26 15 353 73 143 146 146 140 146 148 147 209 320 322 320 317 315
116 109 102 91 87 82 77 70 63 66 59 63 65 64 48 29 14 11 15 7 354 357 351 328 346 345 208 165 165 170 190 213 243 267 281 290 295 298
117 117 112 105 101 98 86 76 63 58 61 73 72 59 56 25 10 13 5 347 314 314 328 318 345 353 343 43 178 205 221 239 256 267 276 282 286 290
91 93 95 86 87 97 98 85 70 54 58 70 77 71 68 31 14 3 343 339 333 351 7 341 352 344 334 322 231 240 249 257 269 273 274 279 285 291
79 75 85 84 73 86 96 95 90 81 73 82 88 89 73 42 21 20 10 3 352 354 14 357 345 334 319 313 321 305 292 279 277 278 279 282 286 293
84 74 69 77 74 74 87 92 89 76 72 81 79 73 65 42 36 34 20 2 347 344 12 356 344 343 325 333 344 321 301 292 289 290 291 291 291 290
98 88 77 76 73 69 72 77 77 59 37 40 83 82 60 51 49 41 40 6 345 328 332 341 331 333 317 313 316 316 318 318 312 306 301 297 293 284
98 96 91 83 77 72 69 61 44 26 16 39 48 43 41 41 22 0 346 299 267 261 275 292 302 314 315 313 314 319 321 316 313 313 317 320 306 297
95 102 100 92 84 76 72 56 39 30 35 44 41 37 31 10 335 331 328 313 296 295 313 289 296 308 308 305 307 312 315 313 315 324 324 321 311 306
102 103 95 87 82 83 82 73 77 55 40 38 28 16 3 360 1 358 346 332 324 333 340 328 318 313 304 300 302 307 312 310 318 321 320 311 304 303
114 114 116 120 123 116 95 74 62 56 41 25 18 8 3 360 350 351 343 336 347 345 339 334 325 311 298 297 308 314 314 315 318 320 317 311 304 302
106 116 110 102 95 88 82 81 74 59 29 12 17 12 1 348 348 352 353 356 351 342 334 330 330 329 326 321 323 322 319 318 314 311 308 307 305 306
100 98 94 88 81 77 69 65 68 69 27 11 21 14 358 347 352 354 352 356 347 333 327 326 335 341 333 327 321 317 309 306 305 306 306 306 306 307
106 103 103 97 84 70 62 53 54 57 27 9 28 13 358 351 355 352 348 355 335 323 326 329 340 339 319 308 304 304 301 301 302 302 304 303 298 298
104 96 93 87 79 72 60 45 45 54 29 8 27 11 360 352 351 343 340 342 330 328 334 330 321 310 294 295 303 305 306 304 298 292 296 301 304 307
96 91 83 79 73 66 58 36 39 51 32 22 22 6 357 352 345 341 342 339 333 332 329 322 319 318 315 315 315 314 312 311 303 297 285 275 292 304
85 85 88 87 83 75 56 32 41 45 36 22 11 358 352 346 338 338 339 336 331 330 330 328 327 323 320 316 316 315 316 317 314 315 308 292 280 277